Menominee, MI

9:10 PM CDT on October 21, 2017 (GMT -0500)
Menominee-Marinette Twin County

Weather History for KMNM - November, 2010

Change the Weather History Date:

Tuesday, November 9, 2010

  Actual Average Record
Temperature  
Mean Temperature 48 °F -  
Max Temperature 53 °F 46 °F 73 °F (1999)
Min Temperature 44 °F 31 °F 12 °F (1991)
Degree Days  
Heating Degree Days 16    
Moisture  
Dew Point 40 °F    
Average Humidity 73    
Maximum Humidity 87    
Minimum Humidity 58    
Precipitation  
Precipitation 0.00 in - - ()
Sea Level Pressure  
Sea Level Pressure 30.01 in    
Wind  
Wind Speed 7 mph (ESE)    
Max Wind Speed 13 mph    
Max Gust Speed -    
Visibility 8 miles    
Events      
Averages and records for this station are not official NWS values.
T = Trace of Precipitation, MM = Missing Value Source: NWS Daily Summary

Daily Weather History Graph

Daily Weather History Graph

Search for Another Location

Airport or City:

Trip Planner

Search our weather history database for the weather conditions in past years. The results will help you decide how hot, cold, wet, or windy it might be!

Date:

Astronomy

Nov. 09, 2010 Rise Set
Actual Time 6:40 AM CST 4:27 PM CST
Civil Twilight 6:08 AM CST 4:59 PM CST
Nautical Twilight 5:33 AM CST 5:34 PM CST
Astronomical Twilight 4:59 AM CST 6:08 PM CST
Moon 10:27 AM CST (11/9) 7:19 PM CST (11/9)
Length of Visible Light 10h 50m
Length of Day
9h 47m
Waxing Crescent, 15% of the Moon is Illuminated
Nov 9
Waxing Crescent
Nov 13
First Quarter
Nov 21
Full
Nov 28
Last Quarter
Dec 5
New

Hourly Weather History & Observations

Time (CST) Temp. Windchill Dew Point Humidity Pressure Visibility Wind Dir Wind Speed Gust Speed Precip Events Conditions
12:15 AM 46.4 °F 42.9 °F 37.4 °F 71% 29.93 in 9.0 mi SE 6.9 mph - N/A   Clear
12:35 AM 46.4 °F 43.5 °F 37.4 °F 71% 29.93 in 10.0 mi SE 5.8 mph - N/A   Clear
12:55 AM 46.4 °F 43.5 °F 37.4 °F 71% 29.93 in 9.0 mi SE 5.8 mph - N/A   Clear
1:15 AM 46.4 °F 44.3 °F 37.4 °F 71% 29.93 in 9.0 mi SSE 4.6 mph - N/A   Clear
1:35 AM 46.4 °F 44.3 °F 37.4 °F 71% 29.93 in 10.0 mi SE 4.6 mph - N/A   Clear
1:55 AM 46.4 °F 42.4 °F 37.4 °F 71% 29.94 in 10.0 mi ESE 8.1 mph - N/A   Clear
2:15 AM 46.4 °F 43.5 °F 37.4 °F 71% 29.94 in 7.0 mi SE 5.8 mph - N/A   Clear
2:35 AM 46.4 °F 43.5 °F 39.2 °F 76% 29.94 in 8.0 mi SSE 5.8 mph - N/A   Clear
3:15 AM 44.6 °F 41.4 °F 37.4 °F 76% 29.95 in 8.0 mi SE 5.8 mph - N/A   Clear
3:35 AM 44.6 °F 42.2 °F 37.4 °F 76% 29.95 in 7.0 mi ESE 4.6 mph - N/A   Clear
3:55 AM 46.4 °F 43.5 °F 37.4 °F 71% 29.95 in 8.0 mi SE 5.8 mph - N/A   Clear
4:15 AM 46.4 °F 42.9 °F 37.4 °F 71% 29.95 in 8.0 mi ESE 6.9 mph - N/A   Clear
4:35 AM 44.6 °F 40.7 °F 37.4 °F 76% 29.95 in 8.0 mi ESE 6.9 mph - N/A   Clear
4:55 AM 44.6 °F 41.4 °F 37.4 °F 76% 29.95 in 7.0 mi SE 5.8 mph - N/A   Clear
5:15 AM 44.6 °F 40.7 °F 37.4 °F 76% 29.96 in 8.0 mi SE 6.9 mph - N/A   Clear
5:35 AM 44.6 °F 40.7 °F 37.4 °F 76% 29.96 in 7.0 mi ESE 6.9 mph - N/A   Clear
6:15 AM 44.6 °F 40.7 °F 39.2 °F 81% 29.97 in 7.0 mi ESE 6.9 mph - N/A   Clear
6:35 AM 44.6 °F 40.2 °F 39.2 °F 81% 29.97 in 5.0 mi ESE 8.1 mph - N/A   Clear
6:55 AM 44.6 °F 40.7 °F 39.2 °F 81% 29.98 in 5.0 mi ESE 6.9 mph - N/A   Clear
7:15 AM 46.4 °F 42.9 °F 39.2 °F 76% 29.98 in 5.0 mi ESE 6.9 mph - N/A   Clear
7:35 AM 46.4 °F 42.9 °F 39.2 °F 76% 30.00 in 5.0 mi SE 6.9 mph - N/A   Clear
7:55 AM 48.2 °F - 39.2 °F 71% 30.00 in 6.0 mi SE 8.1 mph - N/A   Clear
8:15 AM 48.2 °F - 41.0 °F 76% 30.01 in 6.0 mi SE 9.2 mph - N/A   Clear
8:35 AM 48.2 °F - 41.0 °F 76% 30.01 in 6.0 mi SE 6.9 mph - N/A   Clear
9:15 AM 48.2 °F - 41.0 °F 76% 30.02 in 6.0 mi ESE 9.2 mph - N/A   Clear
9:35 AM 50.0 °F - 41.0 °F 71% 30.02 in 6.0 mi SE 10.4 mph - N/A   Clear
9:55 AM 50.0 °F - 41.0 °F 71% 30.03 in 7.0 mi ESE 12.7 mph - N/A   Clear
10:15 AM 51.8 °F - 41.0 °F 67% 30.03 in 6.0 mi ESE 11.5 mph - N/A   Clear
10:35 AM 51.8 °F - 41.0 °F 67% 30.03 in 7.0 mi ESE 11.5 mph - N/A   Clear
10:55 AM 51.8 °F - 39.2 °F 62% 30.03 in 7.0 mi SE 12.7 mph - N/A   Clear
11:15 AM 51.8 °F - 39.2 °F 62% 30.03 in 8.0 mi SE 11.5 mph - N/A   Clear
11:35 AM 53.6 °F - 41.0 °F 62% 30.03 in 8.0 mi ESE 10.4 mph - N/A   Clear
11:55 AM 53.6 °F - 41.0 °F 62% 30.03 in 8.0 mi ESE 9.2 mph - N/A   Clear
12:15 PM 51.8 °F - 39.2 °F 62% 30.02 in 8.0 mi SE 10.4 mph - N/A   Clear
12:35 PM 53.6 °F - 39.2 °F 58% 30.02 in 7.0 mi ESE 9.2 mph - N/A   Clear
12:55 PM 53.6 °F - 39.2 °F 58% 30.02 in 7.0 mi ESE 10.4 mph - N/A   Clear
1:15 PM 53.6 °F - 39.2 °F 58% 30.03 in 8.0 mi East 9.2 mph - N/A   Clear
1:35 PM 53.6 °F - 41.0 °F 62% 30.02 in 8.0 mi ESE 9.2 mph - N/A   Clear
1:55 PM 53.6 °F - 41.0 °F 62% 30.02 in 8.0 mi ESE 11.5 mph - N/A   Clear
2:15 PM 53.6 °F - 41.0 °F 62% 30.02 in 8.0 mi ESE 10.4 mph - N/A   Clear
2:35 PM 53.6 °F - 39.2 °F 58% 30.02 in 9.0 mi ESE 11.5 mph - N/A   Clear
3:15 PM 53.6 °F - 41.0 °F 62% 30.02 in 8.0 mi ESE 9.2 mph - N/A   Clear
3:35 PM 51.8 °F - 42.8 °F 71% 30.02 in 8.0 mi ESE 11.5 mph - N/A   Clear
3:55 PM 51.8 °F - 42.8 °F 71% 30.03 in 8.0 mi East 9.2 mph - N/A   Clear
4:15 PM 50.0 °F - 41.0 °F 71% 30.03 in 9.0 mi East 10.4 mph - N/A   Clear
4:35 PM 48.2 °F - 41.0 °F 76% 30.03 in 8.0 mi East 9.2 mph - N/A   Clear
4:55 PM 48.2 °F - 41.0 °F 76% 30.03 in 10.0 mi East 9.2 mph - N/A   Clear
5:15 PM 48.2 °F - 41.0 °F 76% 30.03 in 10.0 mi East 9.2 mph - N/A   Clear
5:35 PM 48.2 °F - 42.8 °F 82% 30.03 in 10.0 mi East 10.4 mph - N/A   Clear
5:55 PM 48.2 °F - 41.0 °F 76% 30.04 in 10.0 mi East 8.1 mph - N/A   Clear
6:15 PM 46.4 °F 42.9 °F 42.8 °F 87% 30.03 in 10.0 mi East 6.9 mph - N/A   Clear
6:35 PM 46.4 °F 42.4 °F 42.8 °F 87% 30.03 in 10.0 mi East 8.1 mph - N/A   Clear
6:55 PM 46.4 °F 42.9 °F 42.8 °F 87% 30.04 in 10.0 mi East 6.9 mph - N/A   Clear
7:15 PM 48.2 °F - 42.8 °F 82% 30.03 in 10.0 mi East 9.2 mph - N/A   Clear
7:35 PM 48.2 °F - 42.8 °F 82% 30.04 in 10.0 mi East 8.1 mph - N/A   Clear
7:55 PM 48.2 °F - 42.8 °F 82% 30.03 in 10.0 mi East 9.2 mph - N/A   Clear
8:15 PM 48.2 °F - 42.8 °F 82% 30.04 in 10.0 mi East 6.9 mph - N/A   Clear
8:35 PM 46.4 °F 45.2 °F 42.8 °F 87% 30.05 in 10.0 mi ESE 3.5 mph - N/A   Clear
8:55 PM 46.4 °F 43.5 °F 42.8 °F 87% 30.04 in 10.0 mi ESE 5.8 mph - N/A   Clear
9:15 PM 48.2 °F - 42.8 °F 82% 30.05 in 10.0 mi ESE 5.8 mph - N/A   Clear
9:35 PM 46.4 °F 45.2 °F 39.2 °F 76% 30.05 in 10.0 mi ESE 3.5 mph - N/A   Clear
9:55 PM 48.2 °F - 39.2 °F 71% 30.06 in 9.0 mi SE 3.5 mph - N/A   Clear
10:15 PM 48.2 °F - 39.2 °F 71% 30.06 in 10.0 mi SSE 6.9 mph - N/A   Clear
10:35 PM 48.2 °F - 39.2 °F 71% 30.06 in 10.0 mi SSE 6.9 mph - N/A   Clear
10:55 PM 46.4 °F 42.9 °F 39.2 °F 76% 30.06 in 10.0 mi SE 6.9 mph - N/A   Clear
11:15 PM 46.4 °F 43.5 °F 39.2 °F 76% 30.07 in 10.0 mi SE 5.8 mph - N/A   Clear
11:35 PM 48.2 °F - 39.2 °F 71% 30.07 in 10.0 mi SE 8.1 mph - N/A   Clear
11:55 PM 48.2 °F - 39.2 °F 71% 30.07 in 10.0 mi ESE 8.1 mph - N/A   Clear